User: anonymous   Login
Location: Demre
(36.2444°N, 29.9850°E)
Time: 02:29:23
(UTC+00:00)
Language:

Cosmos 1656 Rocket - Orbit

View from above orbital plane
View from above orbital plane
View from above satellite
View from above satellite

Ground track
Ground track

The orbit is defined by the following mean orbital elements,

1 15772U          26129.81445742 +.00000000 +00000-0 +12203-4 0 00002
2 15772  71.1080 318.5898 0034098  27.5400 343.4007 14.21998457    06
Epoch (UTC): 09 May 2026 19:32:49
Eccentricity: 0.0034098
inclination: 71.1080°
perigee height: 794 km
apogee height: 843 km
right ascension of ascending node: 318.5898°
argument of perigee: 27.5400°
revolutions per day: 14.21998457
mean anomaly at epoch: 343.4007°

The dashed part of the orbit path shows where the satellite is in the earth's shadow,  

DLR